{"data":{"norad_id":68156,"epoch":"2026-09-19T00:58:40.316160Z","epoch_age_seconds":182221,"freshness":"STALE","line1":"1 68156U 26049Q   26262.04074440  .00013681  00000+0  42528-3 0  9990","line2":"2 68156  97.2849 281.9617 0000696  95.6384 264.4938 15.33449475 29278","mean_motion":15.33449475,"eccentricity":6.96e-5,"inclination_deg":97.2849,"raan_deg":281.9617,"arg_perigee_deg":95.6384,"mean_anomaly_deg":264.4938,"bstar":0.00042528,"rev_number":2927,"period_min":93.905930614375,"perigee_km":465.05354084548,"apogee_km":466.0061792724,"semimajor_km":6843.6668600589,"source":"CELESTRAK","updated_at":"2026-09-20T09:00:43.794948Z"}}